Stations météo

réclame
Mon MeteoGroup
Neuburg/Donau, Allemagne (10853): Température de l'air & dewpoint: 15.06.2018 12:00:00 - 21.06.2018 12:00:00 (CEST)Neuburg/Donau, Allemagne (10853): Vitesse du vent: 15.06.2018 12:00:00 - 21.06.2018 12:00:00 (CEST)Neuburg/Donau, Allemagne (10853): Direction du vent: 15.06.2018 12:00:00 - 21.06.2018 12:00:00 (CEST)Neuburg/Donau, Allemagne (10853): reduced air pressure: 15.06.2018 12:00:00 - 21.06.2018 12:00:00 (CEST)Neuburg/Donau, Allemagne (10853): visibility: 15.06.2018 12:00:00 - 21.06.2018 12:00:00 (CEST)
Date & Time tt [°C] td [°C] ff [km/h] ff [knt] dd ppp [hPa] vv [km]
21.06.2018 12:00:00 26,5 16,5 18 10 W 1013,1 30
21.06.2018 11:00:00 24,5 16,4 11 6 W 1013,5 30
21.06.2018 10:00:00 23,4 16,2 14 8 WSW 1014,1 25
21.06.2018 09:00:00 21,3 16,7 7 4 S 1014,7 25
21.06.2018 08:00:00 18,4 15,4 4 2 N 1015,7 25
21.06.2018 07:00:00 15,3 14,5 4 2 N 1016,4 25
21.06.2018 06:00:00 13,3 12,9 4 2 N 1016,9 20
21.06.2018 05:00:00 14,2 13,4 4 2 W 1016,7 20
21.06.2018 04:00:00 14,7 13,7 0 0 N 1017,3 30
21.06.2018 03:00:00 15,8 14,4 0 0 N 1017,4 30
21.06.2018 02:00:00 16,2 14,7 0 0 N 1017,7 30
21.06.2018 01:00:00 17,2 15,2 4 2 N 1017,9 30
21.06.2018 00:00:00 18,3 15,6 4 2 N 1018,3 30
20.06.2018 23:00:00 19,6 15,7 0 0 N 1018,1 40
20.06.2018 22:00:00 22,2 16,3 4 2 WNW 1017,6 40
20.06.2018 21:00:00 25,2 14,7 0 0 N 1017,0 40
20.06.2018 20:00:00 27,5 13,9 4 2 S 1016,8 45
20.06.2018 19:00:00 27,3 12,7 4 2 N 1017,0 45
20.06.2018 18:00:00 28,2 13,8 7 4 SE 1017,2 45
20.06.2018 17:00:00 27,1 13,4 7 4 E 1018,0 45
20.06.2018 16:00:00 27,9 13,4 7 4 E 1018,3 45
20.06.2018 15:00:00 27,2 14,5 7 4 ENE 1018,8 45
20.06.2018 14:00:00 27,5 13,2 7 4 E 1019,3 40
20.06.2018 13:00:00 25,8 14,2 7 4 ENE 1020,2 40
20.06.2018 12:00:00 25,1 13,7 11 6 ENE 1020,6 40
20.06.2018 11:00:00 24,2 14,7 11 6 E 1021,0 40
20.06.2018 10:00:00 23,6 16,8 7 4 ENE 1021,4 35
20.06.2018 09:00:00 20,9 15,7 4 2 N 1022,0 30
20.06.2018 08:00:00 19,3 14,9 4 2 N 1022,5 30
20.06.2018 07:00:00 15,3 14,5 4 2 NNE 1023,2 30
20.06.2018 06:00:00 13,1 12,5 0 0 N 1023,7 40
20.06.2018 05:00:00 13,0 12,6 4 2 NNW 1023,6 40
20.06.2018 04:00:00 12,2 11,4 4 2 S 1023,9 60
20.06.2018 03:00:00 14,8 13,8 0 0 N 1023,5 60
20.06.2018 02:00:00 15,6 13,8 4 2 NNW 1023,8 60
20.06.2018 01:00:00 16,4 14,1 4 2 NNW 1023,8 60
20.06.2018 00:00:00 17,8 14,3 4 2 N 1023,5 60
19.06.2018 23:00:00 18,8 14,0 7 4 N 1023,2 60
19.06.2018 22:00:00 21,0 14,7 4 2 N 1022,8 60
19.06.2018 21:00:00 22,7 14,3 4 2 ENE 1022,2 60
19.06.2018 20:00:00 24,5 13,2 7 4 N 1021,9 60
19.06.2018 19:00:00 25,4 14,1 4 2 N 1021,8 60
19.06.2018 18:00:00 24,8 13,3 11 6 W 1022,0 60
19.06.2018 17:00:00 24,1 13,7 11 6 WNW 1022,6 60
19.06.2018 16:00:00 23,6 13,4 11 6 W 1022,7 60
19.06.2018 15:00:00 24,1 13,0 11 6 W 1023,0 60
19.06.2018 14:00:00 23,1 13,2 14 8 W 1023,2 60
19.06.2018 13:00:00 22,2 13,3 14 8 W 1023,7 60
19.06.2018 12:00:00 21,0 13,2 14 8 W 1023,9 45
19.06.2018 11:00:00 21,0 13,7 14 8 W 1024,1 40
19.06.2018 10:00:00 20,0 13,8 11 6 W 1024,4 40
19.06.2018 09:00:00 18,0 13,2 7 4 W 1024,6 40
19.06.2018 08:00:00 16,1 13,1 7 4 W 1024,7 40
19.06.2018 07:00:00 14,7 12,5 4 2 SSW 1024,7 40
19.06.2018 06:00:00 14,0 11,7 7 4 WSW 1024,5 35
19.06.2018 05:00:00 14,7 11,7 7 4 N 1024,0 35
19.06.2018 04:00:00 13,4 11,5 4 2 SSW 1024,0 40
19.06.2018 03:00:00 11,8 10,6 4 2 S 1024,1 40
19.06.2018 02:00:00 13,0 10,7 4 2 SSE 1023,9 40
19.06.2018 01:00:00 14,2 10,8 4 2 W 1023,8 40
19.06.2018 00:00:00 15,2 11,7 4 2 WNW 1023,5 40
18.06.2018 23:00:00 16,3 12,3 4 2 WNW 1022,9 40
18.06.2018 22:00:00 18,4 11,4 4 2 N 1022,0 40
18.06.2018 21:00:00 20,4 11,4 7 4 NNW 1021,3 45
18.06.2018 20:00:00 22,7 10,5 11 6 WNW 1020,6 45
18.06.2018 19:00:00 22,8 9,8 11 6 W 1020,6 45
18.06.2018 18:00:00 22,8 11,0 11 6 W 1020,5 45
18.06.2018 17:00:00 22,6 9,6 14 8 W 1020,6 45
18.06.2018 16:00:00 22,2 11,7 14 8 W 1021,1 45
18.06.2018 15:00:00 21,1 10,6 14 8 W 1021,3 45
18.06.2018 14:00:00 20,9 11,3 14 8 W 1021,7 45
18.06.2018 13:00:00 20,6 11,5 14 8 W 1022,0 45
18.06.2018 12:00:00 19,4 10,6 14 8 W 1022,2 40
18.06.2018 11:00:00 18,4 10,8 14 8 W 1022,3 40
18.06.2018 10:00:00 17,7 10,8 11 6 W 1022,4 40
18.06.2018 09:00:00 16,8 11,2 14 8 W 1022,4 35
18.06.2018 08:00:00 16,1 11,6 11 6 W 1022,0 35
18.06.2018 07:00:00 15,9 11,6 11 6 W 1021,7 35
18.06.2018 06:00:00 15,3 11,5 7 4 W 1021,4 40
18.06.2018 05:00:00 15,4 11,2 11 6 W 1021,3 30
18.06.2018 04:00:00 16,3 11,6 11 6 WNW 1020,7 30
18.06.2018 03:00:00 16,7 12,3 7 4 W 1020,7 30
18.06.2018 02:00:00 16,8 12,4 11 6 W 1020,6 30
18.06.2018 01:00:00 17,4 12,5 7 4 W 1020,1 30
18.06.2018 00:00:00 18,0 11,9 7 4 WNW 1019,9 30
17.06.2018 23:00:00 18,6 11,6 7 4 W 1019,5 30
17.06.2018 22:00:00 19,6 11,6 7 4 W 1018,7 35
17.06.2018 21:00:00 20,3 11,5 7 4 NW 1017,7 35
17.06.2018 20:00:00 21,2 11,9 11 6 NW 1017,3 40
17.06.2018 19:00:00 22,8 12,8 14 8 NNW 1016,2 40
17.06.2018 18:00:00 23,7 11,7 14 8 WNW 1015,6 40
17.06.2018 17:00:00 23,6 12,7 18 10 W 1015,9 40
17.06.2018 16:00:00 22,9 10,7 14 8 WNW 1016,3 40
17.06.2018 15:00:00 22,9 13,4 18 10 W 1016,4 40
17.06.2018 14:00:00 21,0 14,2 14 8 W 1016,9 35
17.06.2018 13:00:00 21,6 14,4 18 10 W 1016,8 35
17.06.2018 12:00:00 21,4 14,1 22 12 W 1016,8 35
17.06.2018 11:00:00 21,6 14,8 14 8 NW 1016,7 30
17.06.2018 10:00:00 20,2 14,2 14 8 W 1016,7 30
17.06.2018 09:00:00 19,5 13,7 14 8 W 1016,4 25
17.06.2018 08:00:00 16,2 13,8 7 4 SW 1016,7 25
17.06.2018 07:00:00 14,7 12,9 4 2 N 1016,4 25
17.06.2018 06:00:00 12,5 11,4 4 2 S 1016,8 25
17.06.2018 05:00:00 13,1 11,9 4 2 N 1016,3 30
17.06.2018 04:00:00 12,4 11,5 4 2 WSW 1016,5 30
17.06.2018 03:00:00 12,9 10,8 4 2 SW 1016,3 30
17.06.2018 02:00:00 14,9 12,2 4 2 W 1016,0 30
17.06.2018 01:00:00 15,7 12,4 4 2 S 1015,9 30
17.06.2018 00:00:00 15,6 12,7 4 2 E 1015,9 30
16.06.2018 23:00:00 17,2 12,9 4 2 NNE 1015,3 30
16.06.2018 22:00:00 19,1 13,2 4 2 NNW 1014,8 35
16.06.2018 21:00:00 21,5 10,7 0 0 N 1013,9 40
16.06.2018 20:00:00 23,5 8,2 4 2 NNW 1013,4 40
16.06.2018 19:00:00 26,4 7,0 4 2 NNE 1012,8 40
16.06.2018 18:00:00 24,5 8,5 7 4 ENE 1013,1 40
16.06.2018 17:00:00 25,0 9,5 4 2 NE 1013,2 35
16.06.2018 16:00:00 24,4 9,6 4 2 E 1013,6 35
16.06.2018 15:00:00 24,2 8,7 7 4 SSE 1014,0 35
16.06.2018 14:00:00 24,1 10,8 7 4 NNE 1014,3 30
16.06.2018 13:00:00 22,9 9,8 4 2 E 1015,0 30
16.06.2018 12:00:00 22,2 11,0 4 2 ENE 1015,5 30
16.06.2018 11:00:00 20,8 13,1 4 2 N 1015,7 25
16.06.2018 10:00:00 18,9 12,2 4 2 ESE 1016,1 25
16.06.2018 09:00:00 16,7 11,5 4 2 E 1016,7 25
16.06.2018 08:00:00 15,0 11,1 4 2 NNE 1016,7 25
16.06.2018 07:00:00 11,5 10,1 0 0 N 1017,1 25
16.06.2018 06:00:00 9,6 8,9 4 2 SSE 1017,3 25
16.06.2018 05:00:00 10,0 9,1 4 2 SSE 1017,2 30
16.06.2018 04:00:00 9,6 8,7 4 2 WSW 1017,6 30
16.06.2018 03:00:00 11,0 10,1 4 2 NW 1017,6 30
16.06.2018 02:00:00 11,4 10,2 4 2 NW 1017,7 40
16.06.2018 01:00:00 11,2 9,8 4 2 SSW 1017,9 40
16.06.2018 00:00:00 12,4 10,8 4 2 SW 1017,5 40
15.06.2018 23:00:00 14,8 11,1 4 2 N 1017,0 40
15.06.2018 22:00:00 16,7 10,6 4 2 NNW 1016,6 40
15.06.2018 21:00:00 18,9 9,8 4 2 NW 1015,9 45
15.06.2018 20:00:00 21,7 10,5 7 4 N 1015,4 45
15.06.2018 19:00:00 20,4 10,6 7 4 NW 1015,5 45
15.06.2018 18:00:00 21,5 9,7 7 4 NNE 1015,3 45
15.06.2018 17:00:00 21,8 8,4 7 4 WNW 1015,5 45
15.06.2018 16:00:00 21,7 8,6 4 2 NNE 1015,8 45
15.06.2018 15:00:00 20,8 8,5 11 6 ENE 1016,2 45
15.06.2018 14:00:00 20,7 8,3 7 4 E 1016,3 40
15.06.2018 13:00:00 19,6 7,3 4 2 N 1016,7 40
15.06.2018 12:00:00 19,0 7,2 7 4 ENE 1016,8 40

tt = Température de l'air
td = dewpoint
ff = Vitesse du vent
dd = Direction du vent
ppp = reduced air pressure
vv = visibility

stations d'obs. à proximité